Paynesville, MN

9:45 AM CDT on March 26, 2017 (GMT -0500)
Paynesville

Weather History for KPEX - April, 2013

Change the Weather History Date:

Monday, April 8, 2013

  Actual Average (KLJF) Record (KLJF)
Temperature  
Mean Temperature 38 °F -  
Max Temperature 41 °F 51 °F 80 °F (1988)
Min Temperature 35 °F 31 °F 8 °F (1997)
Degree Days  
Heating Degree Days 27    
Moisture  
Dew Point 36 °F    
Average Humidity 94    
Maximum Humidity 99    
Minimum Humidity 85    
Precipitation  
Precipitation 0.00 in - - ()
Sea Level Pressure  
Sea Level Pressure 29.83 in    
Wind  
Wind Speed 7 mph (NNE)    
Max Wind Speed 15 mph    
Max Gust Speed 22 mph    
Visibility 5 miles    
Events Rain    
Averages and records for this station are not official NWS values.
T = Trace of Precipitation, MM = Missing Value Source: NWS Daily Summary

Daily Weather History Graph

Daily Weather History Graph

Search for Another Location

Airport or City:

Trip Planner

Search our weather history database for the weather conditions in past years. The results will help you decide how hot, cold, wet, or windy it might be!

Date:

Astronomy

Apr. 08, 2013 Rise Set
Actual Time 6:45 AM CDT 7:56 PM CDT
Civil Twilight 6:15 AM CDT 8:26 PM CDT
Nautical Twilight 5:39 AM CDT 9:03 PM CDT
Astronomical Twilight 5:00 AM CDT 9:42 PM CDT
Moon 5:40 AM CDT (4/8) 6:29 PM CDT (4/8)
Length of Visible Light 14h 11m
Length of Day
13h 10m
Waning Crescent, 3% of the Moon is Illuminated
Apr 8
Waning Crescent
Apr 10
New
Apr 18
First Quarter
Apr 25
Full
May 2
Last Quarter

Hourly Weather History & Observations

Time (CDT) Temp. Windchill Dew Point Humidity Pressure Visibility Wind Dir Wind Speed Gust Speed Precip Events Conditions
12:13 AM 39.2 °F 34.2 °F 38.3 °F 97% 29.73 in 3.0 mi East 6.9 mph - N/A Rain Rain
12:33 AM 39.4 °F 35.2 °F 38.3 °F 96% 29.73 in 2.5 mi East 5.8 mph - N/A Rain Light Rain
12:53 AM 39.4 °F 36.1 °F 38.5 °F 97% 29.73 in 2.5 mi East 4.6 mph - N/A   Overcast
1:13 AM 39.2 °F 35.0 °F 38.3 °F 97% 29.73 in 2.0 mi East 5.8 mph - N/A Rain Light Rain
1:33 AM 39.2 °F 35.0 °F 38.3 °F 97% 29.72 in 2.0 mi East 5.8 mph - N/A   Overcast
1:53 AM 39.2 °F 35.0 °F 38.3 °F 97% 29.72 in 2.0 mi East 5.8 mph - N/A   Overcast
2:13 AM 39.2 °F 35.0 °F 38.5 °F 97% 29.72 in 1.8 mi East 5.8 mph - N/A   Overcast
2:33 AM 39.2 °F 37.0 °F 38.3 °F 97% 29.72 in 1.5 mi ENE 3.5 mph - N/A   Overcast
2:52 AM 38.7 °F 35.2 °F 37.9 °F 97% 29.72 in 1.2 mi North 4.6 mph - N/A   Overcast
3:13 AM 38.3 °F 34.8 °F 37.4 °F 97% 29.72 in 0.8 mi NE 4.6 mph - N/A   Light Drizzle
3:33 AM 37.6 °F 33.1 °F 37.0 °F 98% 29.71 in 0.8 mi NE 5.8 mph - N/A   Overcast
3:53 AM 37.4 °F 33.8 °F 36.9 °F 98% 29.71 in 1.2 mi NE 4.6 mph - N/A   Overcast
4:13 AM 37.2 °F 33.6 °F 36.7 °F 98% 29.71 in 1.2 mi NNE 4.6 mph - N/A   Overcast
4:33 AM 37.0 °F 33.3 °F 36.5 °F 98% 29.71 in 1.5 mi NNE 4.6 mph - N/A   Overcast
4:53 AM 37.0 °F 32.4 °F 36.5 °F 98% 29.70 in 1.8 mi NE 5.8 mph - N/A   Light Drizzle
5:12 AM 36.7 °F 31.2 °F 36.5 °F 99% 29.70 in 1.8 mi NNE 6.9 mph - N/A   Overcast
5:33 AM 36.5 °F 33.9 °F 36.0 °F 98% 29.69 in 1.5 mi NNE 3.5 mph - N/A   Overcast
5:53 AM 36.1 °F 32.3 °F 35.8 °F 99% 29.70 in 1.5 mi NNE 4.6 mph - N/A   Overcast
6:13 AM 35.8 °F 31.9 °F 35.6 °F 99% 29.70 in 1.2 mi North 4.6 mph - N/A   Overcast
6:33 AM 35.6 °F 28.0 °F 35.2 °F 99% 29.71 in 1.2 mi NNE 10.4 mph - N/A   Overcast
6:53 AM 35.6 °F 29.9 °F 35.1 °F 98% 29.71 in 1.2 mi North 6.9 mph - N/A Rain Light Rain
7:12 AM 35.1 °F 29.3 °F 34.7 °F 99% 29.72 in 2.0 mi North 6.9 mph - N/A Rain Rain
7:33 AM 35.1 °F 29.3 °F 34.7 °F 99% 29.74 in 2.0 mi NNE 6.9 mph - N/A   Drizzle
7:53 AM 35.1 °F 28.6 °F 34.7 °F 99% 29.74 in 2.0 mi NNE 8.1 mph - N/A   Overcast
8:13 AM 35.2 °F 31.2 °F 34.9 °F 99% 29.75 in 1.2 mi NNE 4.6 mph - N/A   Overcast
8:33 AM 35.6 °F 31.7 °F 35.4 °F 99% 29.75 in 2.0 mi NE 4.6 mph - N/A   Overcast
8:53 AM 36.1 °F 33.5 °F 35.8 °F 99% 29.76 in 3.0 mi NNE 3.5 mph - N/A   Overcast
9:13 AM 36.1 °F - 35.8 °F 99% 29.77 in 4.0 mi Calm Calm - N/A   Overcast
9:33 AM 36.5 °F 30.3 °F 36.1 °F 99% 29.76 in 4.0 mi NNE 8.1 mph - N/A   Overcast
9:53 AM 36.7 °F 29.9 °F 36.5 °F 99% 29.77 in 3.0 mi NNE 9.2 mph - N/A   Overcast
10:13 AM 37.0 °F 31.6 °F 36.7 °F 99% 29.77 in 2.0 mi NNE 6.9 mph - N/A   Overcast
10:33 AM 37.4 °F 30.3 °F 36.9 °F 98% 29.77 in 2.0 mi NNE 10.4 mph - N/A   Overcast
10:53 AM 37.8 °F 31.3 °F 37.4 °F 99% 29.77 in 2.5 mi NNE 9.2 mph - N/A   Overcast
11:13 AM 38.3 °F 32.5 °F 37.8 °F 98% 29.79 in 5.0 mi NNE 8.1 mph - N/A   Overcast
11:33 AM 38.1 °F 30.7 °F 37.8 °F 99% 29.79 in 4.0 mi NNE 11.5 mph - N/A   Overcast
11:53 AM 38.3 °F 30.5 °F 37.8 °F 98% 29.79 in 5.0 mi NNE 12.7 mph - N/A   Overcast
12:13 PM 38.3 °F 32.5 °F 37.8 °F 98% 29.79 in 7.0 mi NNE 8.1 mph 17.3 mph N/A   Overcast
12:33 PM 38.8 °F 33.2 °F 38.3 °F 98% 29.81 in 7.0 mi North 8.1 mph - N/A   Overcast
12:53 PM 39.4 °F 32.7 °F 38.3 °F 96% 29.81 in 7.0 mi NNE 10.4 mph - N/A   Overcast
1:13 PM 39.2 °F 34.2 °F 37.9 °F 95% 29.82 in 5.0 mi NNE 6.9 mph - N/A   Overcast
1:33 PM 39.4 °F 34.5 °F 37.9 °F 95% 29.82 in 5.0 mi NNE 6.9 mph - N/A   Overcast
1:53 PM 39.6 °F 33.5 °F 37.9 °F 94% 29.84 in 7.0 mi North 9.2 mph - N/A   Overcast
2:13 PM 39.7 °F 34.9 °F 37.9 °F 93% 29.84 in 7.0 mi North 6.9 mph - N/A   Overcast
2:33 PM 40.1 °F 33.6 °F 37.8 °F 91% 29.84 in 7.0 mi North 10.4 mph - N/A   Overcast
2:52 PM 39.7 °F 34.3 °F 37.6 °F 92% 29.84 in 7.0 mi North 8.1 mph - N/A   Overcast
3:13 PM 40.1 °F 33.6 °F 37.8 °F 91% 29.84 in 7.0 mi NNE 10.4 mph - N/A   Overcast
3:33 PM 39.6 °F 33.0 °F 37.4 °F 92% 29.84 in 7.0 mi North 10.4 mph - N/A   Overcast
3:53 PM 40.1 °F 34.1 °F 37.4 °F 90% 29.86 in 7.0 mi North 9.2 mph - N/A   Overcast
4:13 PM 40.1 °F 33.2 °F 37.4 °F 90% 29.87 in 10.0 mi NNE 11.5 mph 17.3 mph N/A   Overcast
4:33 PM 40.6 °F 34.3 °F 37.8 °F 89% 29.87 in 10.0 mi North 10.4 mph 18.4 mph N/A   Overcast
4:53 PM 40.5 °F 33.6 °F 37.4 °F 89% 29.89 in 10.0 mi NNE 11.5 mph - N/A   Overcast
5:13 PM 41.2 °F 34.1 °F 37.6 °F 87% 29.90 in 10.0 mi North 12.7 mph - N/A   Overcast
5:33 PM 41.2 °F 35.5 °F 37.4 °F 86% 29.92 in 10.0 mi NNE 9.2 mph - N/A   Overcast
5:53 PM 41.0 °F 35.8 °F 37.2 °F 86% 29.93 in 10.0 mi North 8.1 mph - N/A   Overcast
6:13 PM 41.0 °F 33.5 °F 37.0 °F 86% 29.93 in 10.0 mi North 13.8 mph - N/A   Overcast
6:33 PM 40.6 °F 32.7 °F 36.5 °F 85% 29.94 in 10.0 mi North 15.0 mph 18.4 mph N/A   Overcast
6:53 PM 40.5 °F 34.1 °F 36.1 °F 85% 29.96 in 10.0 mi North 10.4 mph - N/A   Overcast
7:13 PM 40.3 °F 33.4 °F 36.0 °F 85% 29.96 in 10.0 mi NNE 11.5 mph 18.4 mph N/A   Overcast
7:33 PM 39.2 °F 31.6 °F 35.4 °F 86% 29.98 in 7.0 mi North 12.7 mph 17.3 mph N/A   Overcast
7:53 PM 38.8 °F 31.6 °F 34.7 °F 85% 30.00 in 7.0 mi North 11.5 mph 17.3 mph N/A   Overcast
8:13 PM 38.3 °F 31.4 °F 34.3 °F 86% 29.99 in 10.0 mi NNE 10.4 mph 21.9 mph N/A   Overcast
8:33 PM 38.1 °F 32.3 °F 34.2 °F 86% 30.00 in 10.0 mi NNE 8.1 mph - N/A   Overcast
8:53 PM 37.9 °F 31.5 °F 34.2 °F 86% 30.01 in 10.0 mi NNE 9.2 mph 16.1 mph N/A   Overcast
9:13 PM 37.6 °F 30.0 °F 34.0 °F 87% 30.01 in 10.0 mi NNE 11.5 mph - N/A   Overcast
9:33 PM 37.4 °F 30.3 °F 33.8 °F 87% 30.03 in 10.0 mi NNE 10.4 mph - N/A   Overcast
9:53 PM 36.9 °F 29.6 °F 33.6 °F 88% 30.03 in 10.0 mi NNE 10.4 mph 17.3 mph N/A   Overcast
10:13 PM 36.7 °F 28.9 °F 33.3 °F 87% 30.04 in 10.0 mi NNE 11.5 mph - N/A   Overcast
10:33 PM 36.5 °F 29.2 °F 33.1 °F 87% 30.05 in 10.0 mi NNE 10.4 mph - N/A   Overcast
10:52 PM 36.5 °F 31.0 °F 32.9 °F 87% 30.06 in 10.0 mi NNE 6.9 mph - N/A   Overcast
11:13 PM 36.5 °F 32.7 °F 32.9 °F 87% 30.08 in 10.0 mi North 4.6 mph - N/A   Overcast
11:33 PM 36.1 °F 30.6 °F 32.9 °F 88% 30.08 in 10.0 mi NNE 6.9 mph - N/A   Overcast
11:52 PM 36.0 °F 29.6 °F 32.5 °F 87% 30.08 in 10.0 mi North 8.1 mph - N/A   Overcast